• In Hungary
  • List of Countries
  • For 7 days
  • Water Temperature
  • Satellite Maps
  • Weather Map
  • News
  • Weather Widgets
  • user-avatar
    Login

    Hourly Weather Pogore

    Today, 22 October, Monday

    Time Temperature Precipitation Wind Pressure Humidity
    00:00 +6°C° 0 mm 1 mps 757 mmHg 83%
    01:00 +6°C° 0 mm 1 mps 757 mmHg 84%
    02:00 +6°C° 0 mm 1 mps 757 mmHg 85%
    03:00 +5°C° 0 mm 1 mps 756 mmHg 86%
    04:00 +5°C° 0 mm 1 mps 756 mmHg 87%
    05:00 +5°C° 0 mm 1 mps 756 mmHg 88%
    06:00 +5°C° 0 mm 1 mps 756 mmHg 87%
    07:00 +5°C° 0 mm 1 mps 756 mmHg 87%
    08:00 +4°C° 0 mm 2 mps 755 mmHg 87%
    09:00 +6°C° 0 mm 2 mps 755 mmHg 80%
    10:00 +8°C° 0 mm 3 mps 755 mmHg 73%
    11:00 +9°C° 0 mm 3 mps 755 mmHg 66%
    12:00 +10°C° 0 mm 3 mps 754 mmHg 64%
    13:00 +10°C° 0 mm 4 mps 753 mmHg 62%
    14:00 +11°C° 0 mm 4 mps 753 mmHg 60%
    15:00 +10°C° 0 mm 3 mps 752 mmHg 64%
    16:00 +9°C° 0 mm 3 mps 752 mmHg 68%
    17:00 +8°C° 0 mm 3 mps 751 mmHg 72%
    18:00 +8°C° 0 mm 3 mps 751 mmHg 74%
    19:00 +7°C° 0 mm 3 mps 751 mmHg 75%
    20:00 +6°C° 0 mm 4 mps 750 mmHg 76%
    21:00 +6°C° 0.5 mm 4 mps 750 mmHg 80%
    22:00 +6°C° 0.5 mm 4 mps 750 mmHg 83%
    23:00 +7°C° 0.5 mm 4 mps 750 mmHg 86%

    Tomorrow, 23 October, Tuesday

    Time Temperature Precipitation Wind Pressure Humidity
    00:00 +6°C° 0.3 mm 4 mps 749 mmHg 87%
    01:00 +6°C° 0.3 mm 4 mps 749 mmHg 88%
    02:00 +5°C° 0.3 mm 3 mps 749 mmHg 89%
    03:00 +4°C° 0 mm 3 mps 749 mmHg 90%
    04:00 +4°C° 0 mm 3 mps 749 mmHg 91%
    05:00 +3°C° 0 mm 3 mps 748 mmHg 92%
    06:00 +3°C° 0 mm 3 mps 748 mmHg 91%
    07:00 +3°C° 0 mm 3 mps 748 mmHg 89%
    08:00 +3°C° 0 mm 3 mps 748 mmHg 88%
    09:00 +4°C° 0 mm 3 mps 747 mmHg 82%
    10:00 +5°C° 0 mm 4 mps 747 mmHg 77%
    11:00 +6°C° 0 mm 4 mps 746 mmHg 72%
    12:00 +7°C° 0.1 mm 5 mps 745 mmHg 71%
    13:00 +7°C° 0.1 mm 5 mps 744 mmHg 70%
    14:00 +7°C° 0.1 mm 6 mps 743 mmHg 69%
    15:00 +5°C° 0.1 mm 6 mps 741 mmHg 70%
    16:00 +5°C° 0.1 mm 6 mps 740 mmHg 72%
    17:00 +5°C° 0.1 mm 7 mps 739 mmHg 74%
    18:00 +4°C° 0.6 mm 7 mps 737 mmHg 76%
    19:00 +4°C° 0.6 mm 8 mps 735 mmHg 78%
    20:00 +4°C° 0.6 mm 8 mps 734 mmHg 81%
    21:00 +4°C° 1.4 mm 8 mps 732 mmHg 83%
    22:00 +5°C° 1.4 mm 8 mps 731 mmHg 85%
    23:00 +5°C° 1.4 mm 7 mps 729 mmHg 87%

    Day after tomorrow, 24 October, Wednesday

    Time Temperature Precipitation Wind Pressure Humidity
    00:00 +6°C° 0.4 mm 7 mps 729 mmHg 86%
    01:00 +6°C° 0.4 mm 7 mps 728 mmHg 84%
    02:00 +6°C° 0.4 mm 7 mps 727 mmHg 83%
    03:00 +5°C° 0.6 mm 7 mps 726 mmHg 83%
    04:00 +5°C° 0.6 mm 7 mps 726 mmHg 83%
    05:00 +5°C° 0.6 mm 7 mps 725 mmHg 82%
    06:00 +4°C° 0.8 mm 7 mps 725 mmHg 82%
    07:00 +4°C° 0.8 mm 7 mps 725 mmHg 82%
    08:00 +4°C° 0.8 mm 7 mps 725 mmHg 82%
    09:00 +4°C° 0.3 mm 7 mps 725 mmHg 80%
    10:00 +4°C° 0.3 mm 8 mps 726 mmHg 79%
    11:00 +5°C° 0.3 mm 8 mps 726 mmHg 78%
    12:00 +5°C° 0.3 mm 9 mps 726 mmHg 76%
    13:00 +5°C° 0.3 mm 9 mps 726 mmHg 73%
    14:00 +5°C° 0.3 mm 10 mps 727 mmHg 71%
    15:00 +5°C° 0.9 mm 10 mps 727 mmHg 73%
    16:00 +5°C° 0.9 mm 10 mps 727 mmHg 76%
    17:00 +5°C° 0.9 mm 9 mps 727 mmHg 78%
    18:00 +5°C° 0.4 mm 9 mps 728 mmHg 80%
    19:00 +5°C° 0.4 mm 9 mps 728 mmHg 81%
    20:00 +5°C° 0.4 mm 8 mps 729 mmHg 82%
    21:00 +4°C° 0.5 mm 8 mps 730 mmHg 82%
    22:00 +4°C° 0.5 mm 8 mps 731 mmHg 81%
    23:00 +4°C° 0.5 mm 8 mps 732 mmHg 81%

    25 October, Thursday

    Time Temperature Precipitation Wind Pressure Humidity
    00:00 +3°C° 0.1 mm 9 mps 733 mmHg 80%
    01:00 +3°C° 0.1 mm 9 mps 734 mmHg 79%
    02:00 +3°C° 0.1 mm 9 mps 735 mmHg 79%
    03:00 +2°C° 0 mm 9 mps 736 mmHg 78%
    04:00 +2°C° 0 mm 9 mps 737 mmHg 77%
    05:00 +2°C° 0 mm 9 mps 737 mmHg 77%
    06:00 +2°C° 0 mm 8 mps 738 mmHg 78%
    07:00 +2°C° 0 mm 8 mps 738 mmHg 79%
    08:00 +2°C° 0 mm 7 mps 739 mmHg 80%
    09:00 +3°C° 0 mm 7 mps 739 mmHg 77%
    10:00 +4°C° 0 mm 7 mps 740 mmHg 75%
    11:00 +4°C° 0 mm 8 mps 740 mmHg 73%
    12:00 +5°C° 0 mm 7 mps 740 mmHg 69%
    13:00 +5°C° 0 mm 7 mps 740 mmHg 65%
    14:00 +6°C° 0 mm 7 mps 740 mmHg 61%
    15:00 +5°C° 0 mm 6 mps 740 mmHg 64%
    16:00 +6°C° 0 mm 5 mps 740 mmHg 67%
    17:00 +5°C° 0 mm 4 mps 739 mmHg 69%
    18:00 +5°C° 0.4 mm 4 mps 739 mmHg 75%
    19:00 +5°C° 0.4 mm 4 mps 739 mmHg 80%
    20:00 +5°C° 0.4 mm 3 mps 738 mmHg 85%
    21:00 +5°C° 0.5 mm 3 mps 738 mmHg 88%
    22:00 +5°C° 0.5 mm 3 mps 738 mmHg 90%
    23:00 +7°C° 0.5 mm 3 mps 738 mmHg 93%

    26 October, Friday

    Time Temperature Precipitation Wind Pressure Humidity
    00:00 +7°C° 0.3 mm 3 mps 738 mmHg 93%
    01:00 +7°C° 0.3 mm 3 mps 738 mmHg 94%
    02:00 +7°C° 0.3 mm 3 mps 738 mmHg 94%
    03:00 +7°C° 0.1 mm 3 mps 738 mmHg 94%
    04:00 +6°C° 0.1 mm 4 mps 739 mmHg 93%
    05:00 +6°C° 0.1 mm 4 mps 739 mmHg 92%
    06:00 +6°C° 0.1 mm 4 mps 739 mmHg 92%
    07:00 +6°C° 0.1 mm 4 mps 740 mmHg 91%
    08:00 +6°C° 0.1 mm 4 mps 740 mmHg 90%
    09:00 +7°C° 0 mm 5 mps 740 mmHg 85%
    10:00 +8°C° 0 mm 5 mps 741 mmHg 80%
    11:00 +9°C° 0 mm 5 mps 741 mmHg 75%
    12:00 +9°C° 0 mm 5 mps 741 mmHg 73%
    13:00 +10°C° 0 mm 5 mps 741 mmHg 71%
    14:00 +10°C° 0 mm 5 mps 741 mmHg 69%
    15:00 +10°C° 0 mm 4 mps 741 mmHg 75%
    16:00 +10°C° 0 mm 4 mps 742 mmHg 81%
    17:00 +8°C° 0 mm 4 mps 742 mmHg 87%
    18:00 +8°C° 0 mm 4 mps 742 mmHg 87%
    19:00 +8°C° 0 mm 4 mps 742 mmHg 87%
    20:00 +8°C° 0 mm 4 mps 742 mmHg 87%
    21:00 +8°C° 0 mm 4 mps 742 mmHg 86%
    22:00 +8°C° 0 mm 4 mps 742 mmHg 84%
    23:00 +8°C° 0 mm 4 mps 742 mmHg 82%

    27 October, Saturday

    Time Temperature Precipitation Wind Pressure Humidity
    00:00 +8°C° 0 mm 4 mps 741 mmHg 82%
    01:00 +8°C° 0 mm 4 mps 741 mmHg 81%
    02:00 +8°C° 0 mm 5 mps 741 mmHg 81%
    03:00 +8°C° 0 mm 5 mps 741 mmHg 83%
    04:00 +8°C° 0 mm 5 mps 740 mmHg 84%
    05:00 +8°C° 0 mm 5 mps 740 mmHg 85%
    06:00 +7°C° 0 mm 5 mps 740 mmHg 86%
    07:00 +7°C° 0 mm 4 mps 740 mmHg 86%
    08:00 +7°C° 0 mm 4 mps 740 mmHg 87%
    09:00 +8°C° 0 mm 4 mps 740 mmHg 83%
    10:00 +10°C° 0 mm 4 mps 740 mmHg 80%
    11:00 +10°C° 0 mm 5 mps 740 mmHg 76%
    12:00 +12°C° 0 mm 4 mps 740 mmHg 74%
    13:00 +12°C° 0 mm 4 mps 740 mmHg 71%
    14:00 +13°C° 0 mm 4 mps 739 mmHg 69%
    15:00 +12°C° 0 mm 3 mps 739 mmHg 74%
    16:00 +11°C° 0 mm 3 mps 739 mmHg 78%
    17:00 +10°C° 0 mm 2 mps 738 mmHg 83%
    18:00 +11°C° 0.3 mm 3 mps 738 mmHg 85%
    19:00 +11°C° 0.3 mm 3 mps 738 mmHg 87%
    20:00 +11°C° 0.3 mm 3 mps 737 mmHg 89%
    21:00 +11°C° 0.9 mm 4 mps 737 mmHg 89%
    22:00 +12°C° 0.9 mm 4 mps 736 mmHg 89%
    23:00 +12°C° 0.9 mm 4 mps 736 mmHg 89%
    Show more